This is the latest recevied weather packets stored in our database for station/object DB0DUS-10. If no packets are shown the sender has not sent any weather packets the latest 10 day(s).
| Time | Temp. | Humidity | Pressure | Rain* | Wind** | Luminosity | Snow |
|---|---|---|---|---|---|---|---|
| 1777786088 | 15.56° C | 70% | 1011.9 hPa | 0 mm | - | - | - |
| 1777784887 | 15.56° C | 73% | 1012 hPa | 0 mm | - | - | - |
| 1777784588 | 15.56° C | 72% | 1011.9 hPa | 0 mm | - | - | - |
| 1777783087 | 15.56° C | 75% | 1011.9 hPa | 0 mm | - | - | - |
| 1777781588 | 15° C | 77% | 1011.9 hPa | 0 mm | - | - | - |
| 1777781287 | 15° C | 78% | 1011.9 hPa | 0 mm | - | - | - |
| 1777780140 | 15° C | 82% | 1012 hPa | 0 mm | - | - | - |
| 1777780088 | 15° C | 82% | 1012 hPa | 0 mm | - | - | - |
| 1777779487 | 15° C | 85% | 1012.1 hPa | 0 mm | - | - | - |
| 1777777687 | 14.44° C | 90% | 1012.1 hPa | 0 mm | - | - | - |
| 1777777090 | 14.44° C | 90% | 1012.1 hPa | 0 mm | - | - | - |
| 1777775887 | 14.44° C | 90% | 1012.6 hPa | 0 mm | - | - | - |
| 1777775588 | 14.44° C | 90% | 1012.6 hPa | 0 mm | - | - | - |
| 1777774087 | 14.44° C | 91% | 1012.6 hPa | 0 mm | - | - | - |
| 1777772588 | 14.44° C | 91% | 1012.8 hPa | 0 mm | - | - | - |
| 1777772287 | 14.44° C | 91% | 1012.9 hPa | 0 mm | - | - | - |
| 1777771088 | 14.44° C | 91% | 1013.2 hPa | 0 mm | - | - | - |
| 1777770487 | 14.44° C | 90% | 1013.4 hPa | 0 mm | - | - | - |
| 1777769588 | 14.44° C | 90% | 1013.4 hPa | 0 mm | - | - | - |
| 1777768687 | 14.44° C | 89% | 1013.5 hPa | 0 mm | - | - | - |
| 1777768088 | 14.44° C | 89% | 1013.8 hPa | 0 mm | - | - | - |
| 1777766888 | 14.44° C | 89% | 1014.2 hPa | 0 mm | - | - | - |
| 1777766588 | 15° C | 89% | 1014.2 hPa | 0 mm | - | - | - |
| 1777765088 | 15° C | 87% | 1014.3 hPa | 0 mm | - | - | - |
| 1777763589 | 15.56° C | 87% | 1014 hPa | 0 mm | - | - | - |
* Rain latest hour (hover to see other rain measurements)
** Current wind speed in m/s (hover to see current wind gust speed)